Weather History for Ft Lauderdale, FL

Change the Weather History Date:

Friday, January 18, 2013

  Actual Average Record
Temperature  
Mean Temperature 63 °F 69 °F  
Max Temperature 71 °F 76 °F 86 °F (1925)
Min Temperature 54 °F 61 °F 33 °F (1977)
Degree Days  
Heating Degree Days 2 1  
Month to date heating degree days 2 34  
Since 1 July heating degree days 24 66  
Cooling Degree Days 0 5  
Month to date cooling degree days 172 99  
Year to date cooling degree days 172 99  
Growing Degree Days 13 (Base 50)    
Moisture  
Dew Point 51 °F    
Average Humidity 67    
Maximum Humidity 77    
Minimum Humidity 56    
Precipitation  
Precipitation T in 0.11 in 0.77 in (1932)
Month to date precipitation 0.62 1.49  
Year to date precipitation 0.62 1.49  
Snow  
Snow 0.00 in - - ()
Month to date snowfall 0.0  
Since 1 July snowfall 0.0  
Snow Depth 0.00 in    
Sea Level Pressure  
Sea Level Pressure 30.17 in    
Wind  
Wind Speed 9 mph (North)    
Max Wind Speed 17 mph    
Max Gust Speed 23 mph    
Visibility 10 miles    
Events Rain    
T = Trace of Precipitation, MM = Missing Value Source: NWS Daily Summary

Daily Weather History Graph

Daily Weather History Graph

Search for Another Location

Airport:

Trip Planner

Search our weather history database for the weather conditions in past years. The results will help you decide how hot, cold, wet, or windy it might be!

Date:

Astronomy

Jan. 18, 2013 Rise Set
Actual Time 7:09 AM EST 5:53 PM EST
Civil Twilight 6:44 AM EST 6:18 PM EST
Nautical Twilight 6:16 AM EST 6:46 PM EST
Astronomical Twilight 5:48 AM EST 7:14 PM EST
Moon 11:34 AM EST (1/18) No Moon Set
Length of Visible Light 11h 33m
Length of Day
10h 44m
Waxing Crescent, 47% of the Moon is Illuminated
Jan 18
Waxing Crescent
Jan 18
First Quarter
Jan 26
Full
Feb 3
Last Quarter
Feb 10
New

Hourly Weather History & Observations

Time (EST) Temp. Dew Point Humidity Pressure Visibility Wind Dir Wind Speed Gust Speed Precip Events Conditions
12:53 AM 60.1 °F 50.0 °F 69% 30.11 in 10.0 mi NW 11.5 mph 19.6 mph N/A   Clear
1:53 AM 60.1 °F 48.9 °F 67% 30.11 in 10.0 mi NW 11.5 mph - N/A   Clear
2:53 AM 59.0 °F 48.0 °F 67% 30.12 in 10.0 mi WNW 10.4 mph 17.3 mph N/A   Clear
3:53 AM 57.9 °F 48.0 °F 70% 30.13 in 10.0 mi NW 12.7 mph - N/A   Clear
4:53 AM 57.0 °F 46.9 °F 69% 30.13 in 10.0 mi NW 11.5 mph - N/A   Clear
5:53 AM 55.9 °F 48.0 °F 75% 30.15 in 10.0 mi NW 6.9 mph - N/A   Partly Cloudy
6:16 AM 55.4 °F 48.2 °F 77% 30.16 in 10.0 mi NW 6.9 mph - N/A   Mostly Cloudy
6:53 AM 55.9 °F 48.0 °F 75% 30.18 in 10.0 mi NNW 11.5 mph - N/A   Mostly Cloudy
7:53 AM 55.0 °F 46.0 °F 72% 30.20 in 10.0 mi NNW 11.5 mph - N/A   Mostly Cloudy
8:53 AM 55.0 °F 45.0 °F 69% 30.23 in 10.0 mi NW 10.4 mph - N/A   Overcast
9:53 AM 57.0 °F 46.0 °F 67% 30.24 in 10.0 mi NW 9.2 mph - N/A   Overcast
10:53 AM 59.0 °F 46.9 °F 64% 30.24 in 10.0 mi NW 6.9 mph - N/A   Overcast
11:53 AM 62.1 °F 48.0 °F 60% 30.21 in 10.0 mi Variable 4.6 mph - N/A   Mostly Cloudy
12:45 PM 64.4 °F 50.0 °F 59% 30.19 in 10.0 mi North 6.9 mph - N/A   Mostly Cloudy
12:53 PM 64.9 °F 50.0 °F 58% 30.18 in 10.0 mi Variable 4.6 mph - N/A   Mostly Cloudy
1:09 PM 66.2 °F 50.0 °F 56% 30.17 in 10.0 mi NNW 3.5 mph - N/A   Overcast
1:53 PM 66.0 °F 50.0 °F 56% 30.16 in 10.0 mi Calm Calm - N/A   Overcast
2:53 PM 66.0 °F 52.0 °F 60% 30.15 in 10.0 mi ENE 5.8 mph - N/A   Overcast
3:53 PM 68.0 °F 57.9 °F 70% 30.15 in 10.0 mi NE 9.2 mph - N/A   Overcast
4:53 PM 69.1 °F 59.0 °F 70% 30.16 in 10.0 mi NE 10.4 mph - 0.00 in Rain Light Rain
5:53 PM 70.0 °F 59.0 °F 68% 30.17 in 10.0 mi ENE 10.4 mph - 0.00 in   Overcast
6:53 PM 70.0 °F 57.9 °F 65% 30.18 in 10.0 mi ENE 10.4 mph 18.4 mph N/A   Mostly Cloudy
7:53 PM 71.1 °F 57.0 °F 61% 30.18 in 10.0 mi ENE 16.1 mph 21.9 mph N/A   Overcast
8:53 PM 71.1 °F 55.9 °F 59% 30.19 in 10.0 mi ENE 10.4 mph - N/A   Mostly Cloudy
9:53 PM 71.1 °F 55.9 °F 59% 30.19 in 10.0 mi ENE 12.7 mph - N/A   Overcast
10:53 PM 71.1 °F 55.9 °F 59% 30.18 in 10.0 mi East 10.4 mph - N/A   Overcast
11:53 PM 71.1 °F 55.9 °F 59% 30.17 in 10.0 mi East 8.1 mph - N/A   Overcast